TimeEDT,TemperatureF,Dew PointF,Humidity,Sea Level PressureIn,VisibilityMPH,Wind Direction,Wind SpeedMPH,Gust SpeedMPH,PrecipitationIn,Events,Conditions,WindDirDegrees,DateUTC
12:15 AM,39.2,28.4,65,30.38,10.0,North,-9999.0,-,N/A,,Clear,0,2013-10-26 04:15:00
12:35 AM,37.4,28.4,70,30.37,10.0,North,-9999.0,-,N/A,,Clear,0,2013-10-26 04:35:00
12:55 AM,37.4,28.4,70,30.37,10.0,North,-9999.0,-,N/A,,Clear,0,2013-10-26 04:55:00
1:15 AM,37.4,28.4,70,30.36,10.0,North,-9999.0,-,N/A,,Clear,0,2013-10-26 05:15:00
1:35 AM,37.4,28.4,70,30.36,10.0,North,-9999.0,-,N/A,,Clear,0,2013-10-26 05:35:00
1:55 AM,35.6,28.4,75,30.35,10.0,North,-9999.0,-,N/A,,Clear,0,2013-10-26 05:55:00
2:15 AM,35.6,28.4,75,30.35,10.0,North,-9999.0,-,N/A,,Clear,0,2013-10-26 06:15:00
2:35 AM,35.6,28.4,75,30.35,10.0,North,-9999.0,-,N/A,,Clear,0,2013-10-26 06:35:00
2:55 AM,32.0,30.2,93,30.34,10.0,North,-9999.0,-,N/A,,Clear,0,2013-10-26 06:55:00
3:15 AM,32.0,30.2,93,30.34,10.0,North,-9999.0,-,N/A,,Clear,0,2013-10-26 07:15:00
3:35 AM,32.0,30.2,93,30.33,10.0,North,-9999.0,-,N/A,,Clear,0,2013-10-26 07:35:00
3:55 AM,32.0,30.2,93,30.33,10.0,North,-9999.0,-,N/A,,Clear,0,2013-10-26 07:55:00
4:15 AM,32.0,28.4,87,30.32,10.0,North,-9999.0,-,N/A,,Clear,0,2013-10-26 08:15:00
4:35 AM,32.0,28.4,87,30.32,10.0,North,-9999.0,-,N/A,,Clear,0,2013-10-26 08:35:00
4:55 AM,32.0,28.4,87,30.32,10.0,North,-9999.0,-,N/A,,Clear,0,2013-10-26 08:55:00
5:15 AM,30.2,28.4,93,30.33,10.0,North,-9999.0,-,N/A,,Clear,0,2013-10-26 09:15:00
5:35 AM,28.4,28.4,100,30.32,10.0,North,-9999.0,-,N/A,,Clear,0,2013-10-26 09:35:00
5:55 AM,28.4,28.4,100,30.32,10.0,North,-9999.0,-,N/A,,Clear,0,2013-10-26 09:55:00
6:15 AM,28.4,28.4,100,30.33,10.0,North,-9999.0,-,N/A,,Clear,0,2013-10-26 10:15:00
6:35 AM,28.4,28.4,100,30.33,10.0,North,-9999.0,-,N/A,,Clear,0,2013-10-26 10:35:00
6:55 AM,28.4,28.4,100,30.34,10.0,North,-9999.0,-,N/A,,Clear,0,2013-10-26 10:55:00
7:15 AM,28.4,28.4,100,30.34,10.0,North,-9999.0,-,N/A,,Clear,0,2013-10-26 11:15:00
7:35 AM,28.4,28.4,100,30.34,10.0,North,-9999.0,-,N/A,,Clear,0,2013-10-26 11:35:00
7:55 AM,28.4,28.4,100,30.34,9.0,North,-9999.0,-,N/A,,Clear,0,2013-10-26 11:55:00
8:15 AM,30.2,28.4,93,30.34,10.0,North,-9999.0,-,N/A,,Clear,0,2013-10-26 12:15:00
8:35 AM,32.0,30.2,93,30.35,9.0,North,-9999.0,-,N/A,,Clear,0,2013-10-26 12:35:00
8:55 AM,33.8,32.0,93,30.35,8.0,North,-9999.0,-,N/A,,Clear,0,2013-10-26 12:55:00
9:15 AM,37.4,32.0,81,30.35,10.0,North,-9999.0,-,N/A,,Clear,0,2013-10-26 13:15:00
9:35 AM,39.2,32.0,75,30.35,10.0,North,-9999.0,-,N/A,,Clear,0,2013-10-26 13:35:00
9:55 AM,41.0,32.0,70,30.34,10.0,North,-9999.0,-,N/A,,Clear,0,2013-10-26 13:55:00
10:15 AM,42.8,32.0,66,30.33,10.0,North,-9999.0,-,N/A,,Clear,0,2013-10-26 14:15:00
10:35 AM,46.4,30.2,53,30.33,10.0,North,-9999.0,-,N/A,,Clear,0,2013-10-26 14:35:00
10:55 AM,46.4,30.2,53,30.33,10.0,North,-9999.0,-,N/A,,Clear,0,2013-10-26 14:55:00
11:15 AM,48.2,30.2,50,30.32,10.0,North,-9999.0,-,N/A,,Clear,0,2013-10-26 15:15:00
11:35 AM,50.0,28.4,43,30.31,10.0,North,-9999.0,-,N/A,,Clear,0,2013-10-26 15:35:00
11:55 AM,51.8,28.4,41,30.31,10.0,North,-9999.0,-,N/A,,Clear,0,2013-10-26 15:55:00
12:15 PM,53.6,28.4,38,30.30,10.0,North,-9999.0,-,N/A,,Clear,0,2013-10-26 16:15:00
12:35 PM,53.6,28.4,38,30.29,10.0,North,-9999.0,-,N/A,,Clear,0,2013-10-26 16:35:00
12:55 PM,55.4,26.6,33,30.28,10.0,North,-9999.0,-,N/A,,Clear,0,2013-10-26 16:55:00
1:15 PM,55.4,26.6,33,30.27,10.0,North,-9999.0,-,N/A,,Clear,0,2013-10-26 17:15:00
1:35 PM,55.4,28.4,36,30.25,10.0,North,-9999.0,-,N/A,,Clear,0,2013-10-26 17:35:00
1:55 PM,57.2,28.4,33,30.24,10.0,North,-9999.0,-,N/A,,Clear,0,2013-10-26 17:55:00
2:15 PM,57.2,26.6,31,30.22,10.0,North,-9999.0,-,N/A,,Clear,0,2013-10-26 18:15:00
2:35 PM,59.0,28.4,31,30.21,10.0,North,-9999.0,-,N/A,,Clear,0,2013-10-26 18:35:00
2:55 PM,59.0,26.6,29,30.20,10.0,North,-9999.0,-,N/A,,Clear,0,2013-10-26 18:55:00
3:15 PM,59.0,26.6,29,30.19,10.0,North,-9999.0,-,N/A,,Clear,0,2013-10-26 19:15:00
3:35 PM,59.0,26.6,29,30.17,10.0,North,-9999.0,-,N/A,,Clear,0,2013-10-26 19:35:00
3:55 PM,59.0,24.8,27,30.16,10.0,North,-9999.0,-,N/A,,Clear,0,2013-10-26 19:55:00
4:15 PM,59.0,26.6,29,30.16,10.0,North,-9999.0,-,N/A,,Clear,0,2013-10-26 20:15:00
4:35 PM,59.0,24.8,27,30.15,10.0,North,-9999.0,-,N/A,,Clear,0,2013-10-26 20:35:00
4:55 PM,59.0,24.8,27,30.14,10.0,North,-9999.0,-,N/A,,Clear,0,2013-10-26 20:55:00
5:15 PM,59.0,24.8,27,30.14,10.0,North,-9999.0,-,N/A,,Clear,0,2013-10-26 21:15:00
5:35 PM,59.0,26.6,29,30.13,10.0,North,-9999.0,-,N/A,,Clear,0,2013-10-26 21:35:00
5:55 PM,57.2,28.4,33,30.14,10.0,North,-9999.0,-,N/A,,Clear,0,2013-10-26 21:55:00
6:15 PM,55.4,30.2,38,30.14,10.0,North,-9999.0,-,N/A,,Clear,0,2013-10-26 22:15:00
6:35 PM,53.6,32.0,44,30.14,10.0,North,-9999.0,-,N/A,,Clear,0,2013-10-26 22:35:00
6:55 PM,50.0,33.8,54,30.14,10.0,North,-9999.0,-,N/A,,Clear,0,2013-10-26 22:55:00
7:15 PM,50.0,32.0,50,30.14,10.0,North,-9999.0,-,N/A,,Clear,0,2013-10-26 23:15:00
7:35 PM,50.0,32.0,50,30.15,10.0,North,-9999.0,-,N/A,,Clear,0,2013-10-26 23:35:00
7:55 PM,48.2,32.0,54,30.15,10.0,North,-9999.0,-,N/A,,Clear,0,2013-10-26 23:55:00
8:15 PM,48.2,33.8,58,30.14,10.0,North,-9999.0,-,N/A,,Clear,0,2013-10-27 00:15:00
8:35 PM,46.4,33.8,62,30.13,10.0,North,-9999.0,-,N/A,,Clear,0,2013-10-27 00:35:00
8:55 PM,46.4,32.0,57,30.12,10.0,North,-9999.0,-,N/A,,Clear,0,2013-10-27 00:55:00
9:15 PM,46.4,33.8,62,30.12,10.0,North,-9999.0,-,N/A,,Clear,0,2013-10-27 01:15:00
9:35 PM,42.8,35.6,76,30.13,10.0,North,-9999.0,-,N/A,,Clear,0,2013-10-27 01:35:00
9:55 PM,44.6,35.6,71,30.13,10.0,North,-9999.0,-,N/A,,Clear,0,2013-10-27 01:55:00
10:15 PM,44.6,35.6,71,30.13,10.0,North,-9999.0,-,N/A,,Clear,0,2013-10-27 02:15:00
10:35 PM,44.6,33.8,66,30.13,10.0,North,-9999.0,-,N/A,,Clear,0,2013-10-27 02:35:00
10:55 PM,42.8,35.6,76,30.14,10.0,North,-9999.0,-,N/A,,Clear,0,2013-10-27 02:55:00
11:15 PM,42.8,35.6,76,30.13,10.0,North,-9999.0,-,N/A,,Unknown,0,2013-10-27 03:15:00
11:35 PM,42.8,35.6,76,30.12,10.0,North,-9999.0,-,N/A,,Unknown,0,2013-10-27 03:35:00
11:55 PM,42.8,33.8,70,30.12,10.0,North,-9999.0,-,N/A,,Clear,0,2013-10-27 03:55:00